Flag for U.S.A. Weather past 2 weeks in McAllen, Texas, U.S.A.

Now
82 °F

Overcast.


Feels Like: 89 °F
Forecast: 79 / 92 °F
Wind: 7 mph from Northeast

Location: Miller International Airport

Current Time: May 29, 2015 at 7:19:35 AM

Latest Report: May 29, 2015 at 7:00 AM


Visibility: 6 mi

Pressure: 29.98 "Hg

Humidity: 82%

Dew point: 76 °F

Location of McAllenLocation

Historic Weather in McAllen — Graph

°F

McAllen temperature yesterday

Maximum temperature yesterday: 93 °F (at 2:53 PM)
Minimum temperature yesterday: 80 °F (at 11:53 PM)
Average temperature yesterday: 86 °F

Past Weeks' High & Low Weather Summary

 TemperatureHumidityPressure
High93 °F (May 18, 2:53 PM)91% (May 22, 6:53 AM)30.05 "Hg (May 22, 6:53 AM)
Low72 °F (May 24, 2:53 AM)49% (May 28, 4:53 PM)29.75 "Hg (May 16, 6:53 PM)
Average84 °F75%29.92 "Hg
* Reported May 14 6:53 AM — May 29 6:01 AM, McAllen, Weather by CustomWeather, © 2015

Note: Actual official high and low records may vary slightly from our data, if they occured in-between our weather recording intervals... More about our weather records

Advertising

McAllen weather history for previous 24 hours

 ConditionsComfort  
Time TempWeatherWind HumidityBarometerVisibility
6:01 AM
Fri, May 29
80 °FFog.8 mph87%29.93 "Hg6 mi
5:53 AM80 °FFog.6 mph87%29.92 "Hg6 mi
4:53 AM81 °FMostly cloudy.No wind85%29.92 "Hg6 mi
3:53 AM80 °FFog.7 mph87%29.90 "Hg6 mi
2:53 AM80 °FFog.9 mph87%29.90 "Hg6 mi
1:53 AM81 °FMostly cloudy.12 mph85%29.92 "Hg7 mi
12:53 AM81 °FMostly cloudy.14 mph82%29.93 "Hg8 mi
11:53 PM
Thu, May 28
80 °FClear.9 mph85%29.94 "Hg9 mi
11:00 PM82 °FMostly cloudy.12 mph79%29.96 "Hg10 mi
9:53 PM82 °FPassing clouds.12 mph79%29.94 "Hg10 mi
8:53 PM83 °FSunny.13 mph74%29.92 "Hg10 mi
7:53 PM86 °FSunny.17 mph65%29.90 "Hg10 mi
6:53 PM88 °FPassing clouds.17 mph59%29.89 "Hg10 mi
5:53 PM91 °FSunny.22 mph56%29.88 "Hg10 mi
4:53 PM93 °FSunny.21 mph49%29.89 "Hg10 mi
3:53 PM93 °FPassing clouds.21 mph50%29.92 "Hg10 mi
2:53 PM93 °FBroken clouds.16 mph52%29.94 "Hg10 mi
1:53 PM92 °FPassing clouds.16 mph56%29.97 "Hg10 mi
12:53 PM91 °FPassing clouds.18 mph57%29.99 "Hg10 mi
11:53 AM91 °FPassing clouds.18 mph60%30.00 "Hg10 mi
11:04 AM88 °FHaze.16 mph67%30.01 "Hg1 mi
10:03 AM87 °FWarm.N/A72%30.00 "HgN/A
9:53 AM87 °FBroken clouds.16 mph72%29.99 "Hg9 mi
9:00 AM83 °FLight rain. Mostly cloudy.13 mph82%29.99 "Hg8 mi
8:00 AM83 °FLight rain. Mostly cloudy.17 mph82%29.98 "Hg6 mi
7:01 AM82 °FLight rain. Mostly cloudy.15 mph85%29.95 "Hg6 mi
Weather by CustomWeather, © 2015

See weather overviewHow to use our weather pages